Theta_e
292 288 287 286 288 290 288 287 287 288 286 285 283 281 282 282 283 284 286 290 287 289 287 287 286 286 289 291 293 293 289 289 288 290 292 292 293 293 293 294 295 295 296 297 296 297 298 298 298 300 304 308 308 310 312 314 315 317 319 317 318 320 320 321 320 319 320 319 318 318 320 321 321 321 322 323 325 327 328 328 329 330 331 331 329 328
290 287 287 288 289 289 288 286 285 285 284 287 283 283 283 283 286 287 289 288 287 289 283 282 284 286 287 289 290 290 288 289 290 290 291 292 292 293 293 294 295 296 294 294 295 295 294 296 297 297 302 304 307 309 312 314 316 317 318 317 318 317 318 320 321 320 320 321 322 322 320 318 313 315 317 320 320 323 323 325 326 327 329 330 329 327
286 285 289 289 288 286 286 284 285 285 284 282 284 280 283 284 282 286 287 286 287 288 284 281 285 289 290 291 291 290 292 292 291 291 293 292 292 292 292 293 294 294 295 294 294 293 293 294 295 296 300 304 308 309 310 313 314 314 315 317 316 316 317 318 319 319 319 318 316 317 313 316 306 306 312 316 316 317 319 319 322 324 326 327 328 328
286 286 289 287 287 288 285 285 286 285 283 282 282 284 282 281 285 284 284 286 287 286 286 284 286 289 289 288 289 292 292 290 289 289 290 291 292 292 293 293 294 294 295 295 295 295 292 292 293 294 298 302 305 306 307 310 313 314 315 315 315 315 315 316 316 315 316 314 308 304 304 307 309 307 304 306 306 312 313 316 316 318 320 322 324 325
284 289 288 287 287 289 286 285 286 286 286 282 279 280 282 286 285 283 286 286 282 286 283 283 284 285 280 281 282 283 283 286 288 289 290 291 291 292 292 291 292 293 294 294 294 295 293 292 294 296 298 298 302 305 307 309 313 315 315 315 315 314 313 314 312 312 310 307 304 302 302 302 304 305 307 308 308 308 311 314 314 315 315 316 319 322
287 288 287 289 286 285 287 285 284 286 282 283 282 283 284 282 285 286 282 285 277 281 282 283 279 274 276 279 281 284 284 288 285 286 288 289 290 290 291 292 292 292 291 293 294 295 293 291 292 294 296 298 301 303 306 308 311 312 312 311 311 311 310 311 310 311 310 310 310 306 308 306 302 307 304 309 312 308 309 312 312 313 313 314 314 314
286 288 289 289 288 285 285 285 285 286 282 283 286 284 284 284 284 283 284 281 279 280 283 282 281 277 279 283 287 286 285 287 288 286 289 290 289 286 289 291 290 291 292 291 292 292 292 293 293 294 296 298 299 302 301 302 306 308 308 309 310 311 309 309 308 308 309 309 309 309 312 312 311 311 308 303 302 307 305 310 311 313 312 311 312 313
289 288 287 287 287 286 286 286 286 285 284 284 283 283 285 285 285 283 282 283 279 279 281 278 275 277 280 284 282 282 282 285 286 289 290 290 289 288 287 288 288 290 290 291 291 291 292 293 294 296 297 297 299 299 300 302 303 307 308 308 308 308 307 306 307 307 309 310 308 307 308 309 310 310 309 304 302 301 303 305 306 308 310 310 310 311
289 288 286 286 283 284 286 284 287 284 283 283 284 285 284 285 282 281 280 279 280 280 280 277 282 280 277 281 282 281 284 284 286 288 288 288 288 287 287 287 287 287 288 289 291 292 293 294 295 295 296 296 297 298 300 302 302 303 303 304 304 305 304 304 305 306 306 308 308 308 308 307 305 305 302 298 298 300 299 302 300 303 306 308 309 310
290 289 288 288 286 284 283 286 284 287 288 287 284 284 283 282 281 279 278 281 276 278 275 278 281 276 277 278 280 278 283 283 285 286 286 287 288 288 288 289 289 287 287 289 291 291 293 293 293 293 294 295 296 296 297 299 299 300 299 302 302 303 302 302 303 305 305 306 305 306 305 306 304 299 296 297 298 298 296 300 300 301 302 304 305 307
289 291 291 287 287 285 286 286 285 286 288 288 286 287 283 280 280 277 277 275 277 272 274 277 279 279 276 279 280 283 283 283 283 283 284 288 290 291 289 289 290 290 290 290 290 290 290 290 290 291 294 295 295 295 296 297 297 298 300 299 301 301 300 300 303 303 304 304 304 306 305 305 304 301 300 298 296 295 295 299 299 299 301 300 302 302
288 288 291 288 289 286 288 288 286 285 285 287 284 279 283 281 278 277 271 274 273 268 272 276 277 278 273 275 281 281 283 282 286 287 286 288 289 291 291 292 290 288 288 289 289 291 289 292 293 293 294 294 294 295 296 296 297 297 297 297 299 298 299 299 301 301 303 303 303 303 304 304 304 302 301 300 300 298 299 299 300 298 297 298 299 299
287 288 286 289 290 289 286 289 287 285 282 284 282 282 276 271 269 272 268 273 270 270 278 277 278 279 279 282 286 285 286 286 284 287 286 289 289 289 291 292 291 289 288 289 289 289 290 289 290 292 293 293 292 294 295 296 295 295 295 297 299 299 298 299 299 301 301 301 302 303 303 302 302 301 301 301 300 299 299 299 298 297 298 297 299 300
284 282 286 289 290 290 289 287 285 285 284 283 284 277 273 270 269 265 259 262 266 273 276 279 280 278 278 281 288 290 290 287 285 285 286 287 288 289 290 292 291 291 289 290 288 288 289 290 290 290 291 292 293 294 294 294 294 294 296 296 298 300 297 297 298 299 300 300 301 301 302 302 301 301 301 301 301 299 299 298 299 298 299 299 300 301
276 278 285 288 287 289 289 289 291 287 285 285 281 283 279 268 266 265 263 271 271 272 275 275 275 274 276 284 286 286 288 285 285 286 285 286 287 287 287 288 288 290 290 288 288 290 292 293 292 292 291 291 292 292 293 292 294 294 296 296 297 298 297 297 298 298 299 300 299 300 301 301 300 301 300 301 300 299 298 297 298 299 298 299 299 300
282 279 282 287 287 289 290 288 287 285 286 282 279 280 278 276 275 273 268 266 266 269 270 273 276 277 281 283 285 285 285 287 286 285 284 286 286 284 286 288 288 290 291 289 289 291 292 292 292 292 291 291 290 291 291 293 294 295 297 296 297 299 298 297 297 298 299 299 299 298 299 300 299 299 299 298 297 298 298 298 299 299 298 298 298 298
280 280 284 286 287 289 289 288 289 288 282 283 283 279 280 280 279 270 270 271 270 269 274 269 277 280 280 283 288 288 286 288 285 285 285 286 285 283 287 289 287 288 290 290 289 289 292 292 291 292 291 290 290 291 293 295 295 296 296 296 297 297 295 296 297 298 297 298 297 298 298 298 298 298 298 299 298 298 298 298 298 299 299 298 297 297
282 278 284 286 287 288 287 286 286 285 285 284 279 281 281 282 279 277 273 265 262 269 272 271 275 276 276 278 279 283 286 286 285 285 284 284 284 284 287 287 286 287 289 288 288 289 291 292 293 293 291 290 291 292 292 294 295 295 296 296 297 295 297 296 296 297 297 297 297 297 297 297 298 299 298 298 298 297 297 297 297 297 297 297 298 298
283 280 281 284 284 287 285 289 287 286 286 283 280 284 285 278 277 276 271 270 266 265 267 271 273 274 278 281 280 282 283 285 288 287 284 286 286 287 289 289 287 284 285 287 287 288 290 291 293 293 293 291 290 291 291 292 294 295 295 295 296 297 297 297 297 296 295 296 297 298 297 297 297 297 297 297 297 296 297 297 297 297 298 298 297 297
286 280 279 285 285 286 286 286 283 284 287 287 286 285 284 280 275 273 276 270 272 267 263 271 268 280 279 280 283 285 283 283 286 285 284 285 286 287 288 288 288 287 287 287 288 289 290 291 291 291 292 293 292 291 292 293 293 294 296 295 295 294 294 294 295 295 296 296 296 296 295 295 296 296 297 297 296 296 297 297 297 297 297 298 297 297
284 284 276 281 284 285 284 284 284 285 283 284 283 281 285 280 282 278 277 274 273 264 263 267 271 275 277 282 285 286 285 284 285 286 287 287 287 286 286 287 287 286 286 288 289 289 290 290 291 290 289 289 289 289 291 292 293 294 294 295 295 296 296 295 295 295 296 295 295 295 295 295 294 295 295 295 296 296 297 296 296 297 297 294 296 295
283 281 277 281 282 282 283 283 285 288 290 287 286 283 286 281 277 274 275 276 269 272 270 263 273 280 280 282 287 286 286 284 284 285 286 284 284 285 285 285 285 286 287 288 290 290 288 288 289 288 287 286 287 290 290 291 291 291 293 295 295 294 296 296 295 295 295 295 295 294 295 294 293 294 294 294 294 295 296 295 294 294 292 294 293 294
286 280 280 277 282 285 284 287 283 286 284 285 285 284 287 285 282 275 272 272 271 273 271 269 267 281 285 287 285 284 284 284 283 283 286 284 284 285 288 288 287 287 289 291 290 289 289 288 288 288 287 288 288 289 287 288 290 292 291 291 292 293 296 296 297 296 295 294 294 293 292 292 292 291 291 292 292 292 293 292 291 291 292 292 291 292
290 278 277 275 276 278 282 282 285 283 287 286 284 282 284 283 282 282 277 277 280 273 273 272 269 281 285 283 283 281 280 280 282 281 285 285 286 287 287 288 290 289 290 288 288 287 288 286 285 286 288 291 291 290 290 290 290 291 292 292 291 293 295 294 294 293 293 293 293 292 290 291 290 290 290 291 292 292 291 291 291 290 291 292 291 292
283 281 282 271 271 275 277 281 283 285 285 281 281 283 283 285 281 278 277 277 277 277 279 276 274 282 282 283 285 284 287 289 288 286 283 291 290 289 288 288 288 288 288 290 291 290 290 289 290 292 290 290 291 290 289 290 291 291 292 291 292 294 294 293 291 292 292 291 291 290 290 290 289 290 290 291 291 291 290 289 289 289 291 290 291 291
287 281 281 275 275 273 271 275 278 281 282 283 280 283 285 286 283 282 279 276 277 277 278 277 280 284 286 285 287 285 284 287 287 286 286 285 290 292 289 286 287 288 289 289 290 290 292 291 290 291 290 291 290 290 290 290 290 290 290 291 291 293 293 292 290 291 292 291 290 291 290 290 289 290 290 290 290 290 289 288 289 290 289 290 291 291
281 280 283 284 282 280 281 281 283 284 283 283 283 285 284 285 286 286 281 277 279 281 273 279 283 285 284 286 285 287 284 287 290 288 288 288 286 285 285 286 287 288 289 289 290 290 287 289 291 291 290 290 290 289 290 290 291 291 291 292 291 291 292 291 289 290 291 291 290 291 291 291 291 291 290 290 289 287 288 288 288 289 290 289 290 291
279 281 283 283 284 285 284 283 282 289 286 287 286 284 286 285 284 284 283 282 286 277 279 283 284 282 286 285 285 286 286 283 284 284 285 287 288 288 287 285 288 287 288 288 288 288 289 290 289 289 290 290 291 291 291 290 289 289 290 291 292 289 289 290 289 290 290 290 290 291 292 292 291 289 289 288 287 288 288 288 288 288 288 288 289 290
282 281 283 283 282 283 280 282 283 286 287 287 287 286 284 285 283 283 284 287 285 281 281 286 284 283 286 289 288 288 289 288 288 289 288 288 286 286 286 288 290 291 291 292 293 292 292 292 292 292 292 292 291 292 292 292 292 289 288 289 290 289 289 287 288 290 290 289 290 292 292 291 288 288 288 287 287 287 288 288 288 287 287 288 289 290
286 281 281 280 283 283 282 282 283 285 285 284 285 286 286 285 285 285 286 288 287 285 287 288 286 285 288 290 287 290 290 288 286 286 288 288 289 289 288 289 289 291 291 292 292 292 292 290 289 290 290 290 291 291 291 292 292 292 291 291 290 289 288 288 288 289 289 290 291 292 291 290 288 288 286 287 288 288 288 287 287 287 287 288 288 289
288 283 284 280 280 280 282 282 282 283 283 283 284 284 285 285 286 286 287 287 287 286 287 286 285 285 290 286 286 287 286 287 287 288 289 290 289 290 290 289 289 289 291 291 292 291 290 290 289 288 289 290 290 290 290 290 291 290 290 290 290 289 288 286 287 288 289 290 291 291 290 289 288 287 288 288 287 287 287 287 287 287 287 287 287 288
288 284 282 281 281 278 280 282 282 279 281 280 281 283 283 283 282 284 283 286 284 284 286 285 284 285 289 288 291 288 287 289 290 289 289 290 290 288 288 288 288 290 291 291 290 289 289 289 289 290 290 290 290 289 288 290 290 289 290 291 290 290 287 286 286 288 289 289 289 289 289 288 288 288 288 287 287 287 287 286 286 286 287 287 287 287
285 284 283 283 281 282 280 282 280 281 282 281 283 285 286 285 285 286 287 287 287 289 285 283 285 291 289 287 288 287 288 287 287 288 290 290 288 288 289 291 290 290 289 289 289 288 287 288 288 288 288 288 289 289 289 288 288 289 290 290 290 288 287 287 286 287 288 288 288 288 288 288 288 288 288 288 287 287 286 286 286 286 286 286 287 285
286 285 283 285 282 284 278 280 282 283 277 280 290 291 290 286 285 284 285 287 287 288 287 290 290 291 289 288 288 289 288 290 292 292 293 293 291 288 287 286 286 286 286 285 285 285 286 287 287 288 287 287 287 287 287 286 286 288 288 287 287 286 287 286 287 286 287 287 287 287 287 287 287 287 288 287 286 285 286 285 286 287 287 286 285 285
286 287 285 287 283 283 281 284 282 277 279 289 289 290 292 292 289 288 289 287 287 289 289 289 290 291 292 292 292 292 292 292 290 290 290 287 287 289 288 288 288 288 287 286 285 285 285 286 286 286 287 287 287 286 286 287 285 285 286 286 286 286 286 286 286 286 286 287 287 286 286 286 287 287 287 286 286 285 285 286 286 286 286 286 286 285
286 286 285 284 285 285 282 282 277 279 287 287 288 288 287 288 288 288 287 289 289 290 290 289 291 293 294 294 294 293 292 289 287 287 286 287 286 287 286 287 288 287 287 287 286 286 285 286 286 286 287 286 285 286 285 286 286 285 286 285 285 285 285 284 285 286 286 287 287 287 286 286 287 287 286 286 285 285 286 286 286 286 285 285 284 284
289 287 286 283 286 281 282 282 282 287 286 287 287 285 288 285 285 286 284 288 291 292 291 291 292 293 293 294 293 291 285 287 289 288 286 285 287 285 287 288 287 287 286 285 284 286 286 285 285 285 284 285 285 285 286 286 284 284 285 286 286 285 285 284 285 286 286 286 286 287 287 286 286 287 286 286 285 285 286 286 285 285 284 284 284 284
292 287 287 285 283 286 282 280 280 281 278 285 289 286 289 290 292 292 290 287 290 292 294 293 293 293 293 292 291 288 288 289 288 286 287 286 285 286 284 284 283 283 284 285 285 285 285 285 284 284 284 284 284 284 284 283 283 283 284 286 286 285 286 286 287 286 286 286 286 286 286 286 285 286 286 286 286 286 286 286 285 285 284 284 284 283
291 291 289 286 284 284 282 279 280 278 281 287 287 287 289 290 293 289 287 284 291 290 292 293 293 293 292 292 292 287 287 286 286 284 289 286 286 284 286 286 286 286 286 286 285 285 286 286 284 284 283 284 285 286 283 282 282 283 285 285 285 284 285 286 287 287 287 287 286 286 285 285 284 285 286 286 287 286 286 286 286 285 282 283 283 284
287 287 286 284 283 284 283 281 278 283 281 284 283 283 284 289 292 289 280 281 291 289 290 292 292 292 292 292 287 287 287 285 287 286 286 285 286 284 284 287 285 285 284 284 284 284 284 283 284 286 286 286 286 285 284 282 282 282 284 285 283 284 286 286 287 286 285 285 285 285 285 284 284 284 285 286 286 286 286 285 283 282 282 282 282 282
284 284 285 282 284 284 284 282 284 284 285 284 280 282 281 289 291 283 278 286 286 286 290 291 292 292 291 288 288 289 287 287 285 286 284 283 285 285 284 283 284 284 284 284 285 284 284 284 284 284 284 285 285 284 283 281 283 284 284 283 284 285 286 286 286 285 285 285 285 284 284 284 283 284 284 284 285 285 284 282 283 282 280 281 280 279
284 285 284 285 283 282 283 281 281 285 286 287 283 284 288 289 279 280 288 286 287 286 285 287 288 286 287 289 287 287 288 286 284 282 284 283 284 284 283 283 284 284 285 284 284 284 285 284 284 284 283 283 284 283 281 280 282 283 283 283 284 285 286 285 285 285 284 284 284 284 284 283 283 282 283 283 282 282 283 281 280 281 280 278 278 278
284 283 281 282 284 285 283 281 280 276 286 289 288 286 287 284 285 288 285 286 286 285 285 284 285 285 286 286 286 287 285 285 285 286 284 282 283 285 283 283 283 283 284 284 285 284 282 284 285 285 284 285 283 283 282 279 281 283 282 283 285 285 285 284 284 284 284 283 283 283 283 282 281 282 281 281 280 280 282 279 277 277 277 277 277 278
289 284 283 285 287 281 281 278 279 286 286 287 291 286 286 288 284 286 288 285 285 283 283 283 283 282 283 286 285 284 284 285 284 284 284 283 282 281 282 281 281 281 282 282 282 283 280 282 283 284 284 284 282 282 281 280 283 283 283 284 285 285 284 284 283 282 282 282 282 283 282 282 281 280 279 279 279 278 280 279 277 277 277 277 278 278
286 285 288 284 288 285 283 286 288 286 285 287 289 285 284 286 283 286 285 287 286 284 280 283 285 283 282 284 284 284 283 283 284 283 284 284 283 283 283 283 283 282 282 282 283 282 281 282 282 283 283 284 284 283 281 281 280 282 282 285 284 284 284 284 283 282 282 282 282 282 282 281 280 279 277 277 276 278 280 278 275 277 277 276 277 278
282 284 283 284 282 282 283 284 284 283 284 285 285 283 283 284 283 283 285 286 285 283 283 285 283 283 282 282 283 283 283 283 282 283 283 283 283 284 284 284 284 284 284 285 285 285 283 282 280 280 282 283 283 284 282 280 279 282 284 284 284 284 283 282 281 282 282 282 282 282 281 280 281 279 277 277 276 278 280 280 279 278 278 277 277 278
282 282 285 281 279 283 280 284 286 285 284 284 285 284 283 283 283 284 286 287 286 284 282 282 283 282 282 282 283 283 283 283 282 282 282 282 282 282 282 282 282 283 283 283 283 282 282 280 281 281 281 282 283 284 284 283 282 281 283 283 284 283 283 282 281 281 282 282 283 283 281 280 281 281 280 275 276 277 278 278 278 278 279 278 278 278
281 280 283 283 281 282 279 279 280 280 281 282 282 284 284 283 282 281 282 282 283 282 282 282 283 283 282 283 283 283 283 281 281 280 280 281 280 280 280 280 279 279 280 280 281 280 279 280 279 280 280 281 282 282 282 282 282 282 283 283 283 283 282 282 282 282 282 282 282 282 282 281 280 280 280 280 278 278 278 278 278 279 279 279 279 278
282 284 278 280 285 280 281 281 280 282 283 282 280 279 281 282 281 281 281 281 282 282 281 281 281 281 281 281 280 280 280 280 280 280 279 279 280 280 279 279 279 278 279 279 278 278 278 277 278 279 278 279 280 280 280 280 281 281 281 281 281 281 280 281 281 281 281 281 281 282 281 280 280 280 280 280 279 278 279 280 279 279 280 281 281 281
282 281 279 281 278 278 283 283 282 279 277 283 280 280 279 281 281 280 280 280 280 280 281 280 280 279 278 279 279 279 278 278 278 278 277 278 278 278 278 278 277 277 276 276 277 275 276 276 276 277 277 278 278 279 279 279 280 280 280 280 280 279 279 280 280 280 280 281 281 281 281 281 281 279 279 279 279 279 279 278 281 281 280 281 282 283
283 282 282 279 280 280 284 284 284 282 279 279 280 278 279 279 281 280 278 277 277 277 279 280 280 279 278 277 277 276 276 276 275 276 275 276 277 277 276 275 275 275 276 276 275 275 274 274 275 275 275 276 276 277 277 278 278 278 279 279 279 278 278 278 278 279 279 280 280 281 281 281 281 281 280 279 279 278 279 279 280 283 284 283 282 283
Wind_Speed
1 6 7 7 8 9 5 5 2 2 6 6 5 5 3 3 1 2 1 1 1 1 4 4 5 5 11 11 12 11 2 3 5 9 10 9 8 8 9 10 12 11 17 5 5 7 8 9 8 8 6 7 6 6 7 8 10 11 12 10 12 10 9 9 9 8 9 9 6 6 9 10 6 6 5 7 7 7 7 8 8 9 8 8 9 10
4 5 7 7 7 7 6 6 8 8 4 6 6 5 1 1 1 0 0 2 3 1 1 2 2 8 11 12 12 8 2 8 10 10 10 12 11 9 9 12 14 15 5 5 6 6 5 6 6 5 6 6 8 10 9 12 14 13 10 11 11 8 9 11 11 10 10 10 10 10 10 6 5 6 6 7 5 7 6 7 8 8 8 8 8 8
2 7 8 7 3 6 6 3 3 5 5 3 6 4 4 1 2 3 1 2 2 1 5 2 5 9 11 11 11 9 12 8 7 9 10 9 10 9 10 12 15 10 14 7 7 6 5 5 4 4 5 7 11 9 11 11 8 8 9 10 8 9 10 10 10 10 11 8 6 7 5 8 4 3 5 5 5 5 6 6 7 7 7 7 7 7
2 5 9 3 7 8 3 3 7 7 7 5 5 3 3 2 2 1 2 1 3 2 2 2 6 12 8 6 11 13 8 5 5 7 10 8 12 13 14 12 10 12 14 13 10 8 5 5 4 4 6 10 8 7 7 8 11 10 10 9 9 10 10 9 10 10 8 7 4 2 3 3 5 5 4 3 0 4 4 6 4 5 5 5 6 5
6 1 1 8 3 8 6 2 6 5 2 1 3 3 4 1 1 2 0 1 0 1 2 3 4 9 4 4 5 3 2 2 5 4 8 11 10 12 9 8 9 12 9 10 10 10 6 4 6 8 8 5 7 9 10 10 11 10 13 12 11 9 10 9 8 9 6 6 4 4 4 4 3 3 3 3 4 4 3 3 5 5 3 4 5 6
1 1 4 6 4 4 7 3 4 8 2 1 3 5 4 4 5 0 2 2 5 2 3 3 4 4 3 5 8 10 6 7 2 3 8 10 10 6 9 14 7 8 6 8 11 12 7 5 5 5 5 6 8 9 9 7 8 6 6 6 7 6 6 8 8 9 9 9 10 8 7 5 4 6 4 9 10 5 5 6 2 3 5 4 4 4
2 1 1 6 5 4 5 4 4 5 6 3 3 3 3 6 5 5 2 3 1 0 2 3 1 7 5 6 7 7 6 11 10 5 12 11 6 4 9 9 7 7 7 7 9 8 7 9 6 6 6 7 7 8 3 4 5 6 5 6 8 8 7 7 7 8 8 7 7 11 12 11 11 11 8 4 4 6 5 5 6 6 5 5 5 5
2 2 5 4 5 4 4 2 3 8 8 3 1 5 6 7 6 4 4 2 1 1 3 4 3 2 9 8 4 3 4 9 9 12 12 9 7 7 7 8 7 8 6 6 6 6 6 7 6 9 5 5 7 3 4 5 5 8 8 8 8 6 6 6 7 8 9 10 9 9 8 9 9 10 8 6 5 4 6 6 6 6 5 5 5 5
2 3 2 3 2 3 6 3 4 4 4 2 2 6 4 5 3 5 4 4 1 1 7 3 0 1 5 9 5 2 6 7 10 12 10 9 9 8 7 6 7 7 5 5 6 7 6 6 6 6 5 4 4 4 5 5 5 4 4 5 4 5 5 5 7 8 8 8 10 10 9 8 6 5 4 3 3 5 5 6 6 6 6 6 6 6
3 2 4 6 6 5 3 0 2 4 4 1 7 7 7 7 7 4 4 2 1 1 6 3 3 2 9 7 6 2 1 7 9 7 8 7 9 10 9 6 4 4 5 4 6 6 6 6 5 4 4 3 4 4 3 2 3 4 4 5 5 5 5 5 6 7 8 7 7 8 7 9 7 4 3 4 5 5 5 6 6 6 6 6 6 5
1 4 4 4 4 3 5 1 1 1 2 9 5 8 6 9 5 3 7 2 3 1 6 5 3 1 6 5 6 3 3 3 3 4 5 7 7 6 4 4 4 4 4 3 2 3 3 3 3 3 4 3 1 1 1 2 3 3 4 4 4 5 4 5 6 7 8 7 6 8 8 9 8 7 6 5 5 4 4 6 7 6 6 5 6 4
2 1 1 1 3 3 3 5 5 3 4 6 3 4 5 2 7 4 5 5 1 5 5 1 3 1 6 6 5 8 5 5 4 4 5 8 8 7 5 5 4 4 4 5 4 3 4 3 2 2 3 2 1 0 0 1 1 2 3 4 4 4 4 4 5 6 6 6 7 6 7 8 8 8 8 9 9 8 8 7 7 5 4 5 5 4
1 2 1 5 4 6 3 9 4 3 3 6 7 7 5 3 4 2 3 2 5 5 0 3 2 1 12 9 6 8 10 6 6 7 4 5 8 8 6 7 5 4 4 4 4 4 4 4 3 2 3 3 3 1 0 1 1 2 3 4 5 5 4 5 5 6 6 6 7 8 8 7 7 7 8 8 8 7 8 7 6 6 6 5 6 6
4 2 1 2 2 3 5 10 2 2 1 5 7 6 5 1 1 3 3 1 5 5 4 1 0 5 4 6 13 16 9 1 3 6 7 7 7 7 8 8 7 6 5 5 4 4 5 5 5 3 0 1 1 1 2 2 3 4 4 4 5 6 5 5 5 6 6 7 7 7 7 7 7 7 8 8 8 7 7 6 7 7 8 8 9 8
3 4 6 6 2 2 3 5 12 8 9 7 1 9 9 8 5 4 3 5 5 3 2 4 1 7 2 0 1 6 7 6 6 7 5 6 8 7 7 7 7 6 5 3 4 5 6 7 5 5 1 0 1 3 4 4 4 4 4 4 5 5 5 6 6 5 7 7 6 6 7 7 6 7 7 7 7 7 7 6 7 8 7 8 8 8
7 3 4 2 1 4 8 1 3 6 4 0 3 6 5 5 6 1 4 3 0 1 2 1 6 3 4 3 9 5 6 7 5 5 3 5 5 4 6 5 4 5 6 3 4 5 7 6 6 6 4 2 3 3 3 4 4 4 5 5 5 6 5 5 5 6 7 7 6 6 7 7 6 6 5 5 4 5 7 7 8 8 8 7 7 6
3 4 2 6 3 3 1 0 0 2 6 4 4 4 4 2 8 6 2 1 1 3 9 2 8 6 8 7 10 8 6 8 5 4 2 4 5 4 6 7 6 5 5 5 3 4 6 6 5 5 5 4 3 3 4 5 4 4 4 5 5 5 4 5 6 7 6 6 6 7 6 6 6 6 7 7 7 7 7 7 7 7 7 6 6 6
9 4 2 3 4 1 0 1 3 5 3 8 2 7 2 2 4 4 4 2 2 3 8 2 8 3 2 8 4 2 1 6 6 5 4 7 5 4 5 5 4 5 6 5 5 6 7 7 7 5 4 4 4 4 5 4 2 3 4 5 5 4 6 6 6 7 6 7 7 7 7 7 7 7 7 6 7 6 6 6 6 6 6 7 7 7
5 1 1 1 0 5 3 1 3 2 2 3 4 4 6 3 1 2 4 2 1 3 6 4 2 6 9 9 3 2 2 6 9 6 5 6 6 5 8 6 1 2 5 6 5 5 6 6 6 5 5 4 3 4 4 4 3 4 5 5 5 6 6 6 6 5 5 5 6 7 7 7 7 6 6 6 6 5 7 8 7 8 8 6 6 7
0 4 2 1 2 1 1 3 10 3 2 1 3 4 1 3 2 5 6 4 5 4 2 9 3 10 4 7 9 6 6 6 7 6 5 7 5 5 7 7 8 7 6 5 5 5 5 5 5 5 5 6 5 5 5 5 4 5 5 4 5 4 4 4 6 6 7 7 7 7 5 5 6 6 7 7 7 8 8 8 8 8 7 8 7 7
3 1 5 1 3 2 4 5 10 11 8 2 2 3 0 1 2 4 1 3 4 5 5 3 8 7 5 6 10 10 8 8 7 6 7 5 5 6 6 7 7 6 5 4 4 4 4 5 6 6 5 4 4 4 5 7 7 6 4 5 5 6 7 7 6 6 7 5 7 6 8 7 7 7 7 7 7 9 8 7 8 8 8 5 8 7
3 2 7 2 1 5 7 2 4 11 12 13 13 11 12 9 4 4 7 3 1 3 5 3 11 7 5 2 8 7 8 6 8 4 3 3 4 4 5 4 4 3 3 3 3 2 3 3 4 5 6 4 4 6 7 9 5 4 5 6 5 6 8 7 7 7 7 7 7 8 7 7 6 7 6 7 8 9 8 7 7 7 5 8 7 7
5 3 8 4 8 10 3 1 2 1 2 1 3 8 8 6 6 5 5 5 2 3 4 3 1 12 5 8 6 4 4 5 3 4 2 1 3 3 3 2 2 3 5 4 3 3 3 3 3 4 4 4 5 8 7 4 3 4 4 4 5 6 10 7 8 6 6 6 7 8 7 6 7 6 7 8 8 9 9 8 6 6 8 8 6 7
6 3 3 1 3 4 3 3 1 1 1 2 1 1 5 7 7 7 5 7 9 2 1 1 1 11 1 1 2 3 3 2 1 4 3 1 2 2 4 4 4 3 3 4 4 3 3 4 4 4 4 4 5 6 6 5 4 4 5 5 5 8 10 6 5 5 5 6 7 6 6 8 7 7 8 9 9 10 9 7 7 6 8 7 6 8
4 4 7 2 2 2 4 3 2 2 1 3 2 3 4 3 3 2 5 1 1 8 8 7 9 14 1 3 1 1 1 1 2 2 4 1 4 3 3 3 3 4 4 5 5 5 6 6 6 6 6 5 6 6 5 6 6 6 7 6 7 8 6 5 4 5 5 5 7 6 7 8 7 8 9 11 9 10 7 6 6 6 8 6 8 7
6 5 8 7 11 10 8 10 14 12 8 2 2 4 6 11 7 4 5 2 6 6 8 7 11 7 1 2 0 1 2 2 1 2 2 1 0 2 1 3 4 4 5 6 6 7 7 7 7 8 7 6 6 5 5 5 6 8 8 6 4 6 6 5 4 4 5 6 7 8 9 9 8 10 11 10 9 9 6 6 7 7 7 7 8 7
3 1 6 10 13 13 12 5 1 12 4 8 8 11 7 6 11 9 4 5 13 10 5 8 12 15 6 1 1 5 2 4 1 0 1 2 4 5 4 5 5 5 5 6 6 6 5 6 7 7 6 6 6 5 5 5 6 6 6 7 5 4 5 5 3 4 6 7 7 8 10 9 10 10 9 9 8 5 6 7 7 7 9 7 8 9
2 2 7 8 11 11 5 4 6 13 14 15 14 11 13 11 11 12 12 15 12 4 12 12 12 9 19 7 6 7 7 4 4 4 5 5 4 3 5 4 6 6 6 5 6 5 5 6 5 5 5 6 6 6 6 5 4 5 6 8 8 5 4 4 4 5 6 6 7 9 12 11 8 7 7 6 5 6 7 7 7 7 6 5 9 10
5 5 4 5 8 8 1 2 6 7 11 12 15 13 13 13 11 15 17 19 9 10 18 16 8 12 19 15 10 11 9 7 6 6 4 4 5 5 4 4 6 7 7 7 7 7 7 7 7 8 8 7 7 9 10 10 10 6 5 5 7 6 5 4 4 6 6 6 9 12 11 7 5 5 5 5 6 7 7 7 7 6 6 7 8 8
2 5 3 1 6 5 4 4 5 10 6 5 9 13 15 16 18 20 20 19 17 13 14 17 11 14 16 11 9 12 7 5 4 1 1 1 4 5 5 5 6 7 8 8 8 7 6 5 5 6 7 8 8 9 9 9 8 7 7 9 6 5 5 3 5 6 6 7 10 10 7 6 5 5 4 6 8 8 7 7 7 7 7 8 9 8
4 4 4 2 3 5 5 1 2 8 6 8 7 8 11 14 18 21 19 18 14 14 13 14 14 15 14 5 4 5 3 1 1 2 5 7 6 7 6 6 6 6 7 6 8 7 6 6 5 5 5 6 6 6 6 6 7 7 8 7 7 6 5 3 4 5 6 9 9 7 6 5 5 4 6 7 7 7 7 7 6 7 8 9 8 9
2 2 3 2 3 5 2 5 2 2 1 2 6 9 11 14 13 9 10 8 8 13 16 14 14 17 10 9 8 4 4 6 7 7 6 7 8 6 5 6 6 7 7 7 5 5 6 6 6 6 6 7 6 5 5 6 7 7 8 8 8 7 4 3 4 5 7 8 7 6 6 5 5 6 7 6 7 6 6 6 6 8 8 8 9 9
2 4 2 1 5 8 1 5 4 3 1 6 11 17 20 10 7 6 11 12 16 15 14 12 18 20 6 4 4 2 7 5 4 5 7 8 5 5 6 7 7 6 5 5 6 6 5 5 5 6 6 5 6 6 6 5 6 7 7 8 9 8 6 5 4 5 7 6 5 6 6 6 6 6 6 7 7 6 6 7 7 9 9 11 9 6
3 4 2 1 4 3 4 4 3 5 12 15 10 10 9 15 15 12 14 18 11 9 11 13 14 9 0 2 6 6 5 4 7 9 9 8 7 6 6 4 4 4 3 3 3 4 5 5 5 5 5 5 5 4 5 4 5 6 7 8 7 6 6 5 6 4 6 6 6 6 5 5 5 7 8 7 6 5 6 7 10 9 8 7 6 8
4 3 3 2 3 4 3 5 5 14 16 5 3 2 9 15 15 20 18 5 6 9 9 13 15 16 15 9 8 7 8 6 4 3 5 2 3 4 2 1 0 0 1 2 3 3 4 4 5 5 6 5 6 6 6 6 3 5 6 5 6 5 6 5 5 6 6 7 7 5 5 5 5 7 7 6 5 6 7 9 8 7 7 8 9 9
8 8 4 2 3 0 4 8 9 6 1 2 6 1 1 2 5 7 8 8 10 13 15 16 19 18 14 11 8 7 4 4 0 1 0 0 1 4 4 3 0 0 1 2 3 4 4 4 4 5 6 5 5 7 5 6 6 6 7 5 4 5 5 4 5 7 6 7 7 7 6 5 6 7 6 5 5 7 8 8 8 9 7 7 7 7
11 5 4 4 5 7 3 9 9 5 8 5 4 3 6 7 6 10 8 11 13 13 14 15 16 15 13 10 8 1 5 4 1 2 1 2 1 1 2 1 0 1 2 3 3 4 4 4 4 4 4 5 5 5 6 6 6 6 7 7 6 5 6 5 6 6 6 7 7 7 7 6 6 7 7 6 6 8 8 8 9 8 5 7 8 8
10 11 6 8 5 8 8 6 2 5 11 12 8 1 5 5 9 8 8 7 4 10 14 14 14 15 12 8 7 4 4 1 8 7 4 2 1 0 0 2 2 2 2 3 3 3 3 3 3 3 3 5 5 4 4 4 5 5 5 6 6 7 7 6 7 6 6 7 7 7 6 6 5 7 7 6 8 9 8 7 6 7 6 9 9 9
6 8 10 13 5 6 9 10 9 8 9 5 3 5 7 5 7 3 3 11 6 8 8 11 14 14 11 10 10 5 4 6 9 4 5 1 0 1 0 0 0 1 2 2 3 5 5 5 4 4 3 3 5 5 4 4 5 5 6 6 7 6 6 7 8 8 8 9 8 7 7 6 6 6 7 7 8 8 9 8 8 6 5 8 7 9
11 8 6 11 11 8 7 9 9 4 6 5 3 3 5 6 7 7 7 8 11 6 8 11 14 12 11 8 3 5 7 7 8 4 3 2 1 1 1 2 4 4 4 4 4 3 4 4 6 7 8 8 7 6 6 5 5 5 5 7 5 6 7 8 8 8 7 8 8 7 7 6 6 6 6 8 8 7 8 6 5 6 6 7 7 7
6 3 8 15 12 12 14 9 4 5 3 4 3 2 3 6 9 9 12 8 1 7 10 10 10 10 5 4 7 7 7 5 3 4 2 1 1 1 0 0 1 1 4 5 5 5 5 5 4 4 5 6 6 6 5 4 6 7 6 6 6 7 8 8 8 8 8 7 8 7 7 6 5 8 7 6 7 7 6 5 6 6 6 7 6 6
7 6 3 6 11 11 10 11 9 5 5 5 0 7 7 7 5 10 5 1 6 4 1 4 5 3 4 6 5 3 5 3 1 1 3 3 2 1 1 3 4 3 1 1 4 4 6 7 7 6 5 4 4 4 4 3 5 5 6 7 8 7 7 7 8 8 8 9 9 8 7 7 7 6 7 6 5 6 8 5 5 6 6 6 6 7
10 8 8 9 5 5 4 8 6 9 2 7 9 2 2 4 7 7 2 1 0 3 7 2 4 4 5 5 3 7 5 3 3 2 1 1 1 1 3 4 4 5 7 7 7 5 4 7 8 7 6 6 5 4 4 4 6 6 6 8 8 7 7 7 8 8 9 9 10 10 9 8 7 8 5 6 5 6 8 5 4 6 5 6 6 8
7 8 4 6 7 8 10 10 6 3 3 3 12 10 7 10 2 5 8 2 1 2 4 5 1 3 2 8 6 4 4 4 1 1 1 1 1 2 3 3 3 3 4 4 3 5 5 5 5 8 7 5 4 4 4 4 7 8 9 11 8 7 7 7 7 7 9 9 9 10 9 8 7 6 5 6 6 5 7 6 5 5 6 6 7 7
7 10 8 10 7 9 8 7 4 1 3 5 3 0 3 2 2 6 4 7 8 5 3 6 5 3 4 6 5 5 3 2 3 2 2 0 0 1 2 2 3 4 4 4 6 5 4 5 8 9 9 7 7 4 3 2 4 6 8 9 8 10 11 11 10 9 10 10 9 9 9 8 7 7 6 6 5 6 7 6 4 7 6 6 7 7
3 1 1 3 4 1 2 1 1 1 1 2 0 1 3 1 0 4 6 6 1 4 6 8 5 6 3 4 7 1 3 3 3 1 0 0 1 1 0 2 3 3 3 3 4 6 5 6 5 5 8 10 7 8 4 4 4 7 9 8 8 9 9 9 10 11 11 10 9 9 8 9 9 6 6 6 5 6 7 7 6 7 7 6 8 8
4 3 4 3 2 5 7 5 7 5 1 1 3 1 1 1 1 1 6 7 7 7 4 1 6 4 6 5 6 5 3 2 3 1 1 0 0 1 1 1 2 3 6 6 6 6 6 5 7 8 8 10 8 9 10 8 5 5 7 8 8 9 10 10 10 11 11 11 11 10 8 8 9 9 7 5 5 6 6 6 6 7 8 8 8 8
4 3 4 5 4 6 6 2 3 2 0 0 1 4 4 2 4 4 2 3 6 5 4 4 5 6 3 5 4 6 5 3 3 1 0 1 1 0 0 1 2 3 3 3 5 5 6 6 6 8 9 9 9 8 8 9 9 9 9 9 9 10 10 10 10 11 12 13 10 10 9 9 11 10 9 8 6 7 7 7 7 8 10 10 9 9
3 5 5 5 9 3 1 1 1 2 1 1 2 2 1 2 5 5 5 6 6 9 8 8 7 4 5 5 3 4 4 2 3 1 0 1 1 1 3 3 3 3 4 6 6 5 6 5 8 8 9 10 8 9 9 9 8 8 9 9 9 10 11 12 12 12 12 11 9 10 9 8 8 8 9 9 8 8 8 9 8 10 11 10 7 9
3 7 2 4 6 5 9 7 6 3 3 4 2 2 2 3 7 7 6 8 6 7 6 8 7 7 8 6 4 4 3 2 3 3 3 3 3 4 4 5 4 5 5 4 5 5 6 7 7 9 9 9 8 9 10 10 9 9 8 8 8 8 9 11 12 12 12 11 10 10 10 9 9 8 8 8 9 10 10 10 13 11 10 11 9 15
9 7 7 6 7 9 7 6 5 3 2 0 6 3 1 3 6 9 7 7 4 3 3 6 6 5 6 5 5 5 4 3 4 4 3 3 3 4 5 6 8 8 9 8 8 8 7 8 7 8 10 9 8 9 9 9 9 9 8 7 8 8 9 9 10 10 11 10 10 11 11 10 10 10 8 8 9 8 10 12 8 15 19 17 15 10
Wind_Direction
97 135 176 190 192 195 186 165 167 129 147 108 85 100 163 168 276 278 290 285 345 106 243 236 262 274 279 273 277 278 334 300 288 278 267 262 259 252 253 253 253 249 246 248 213 229 230 230 223 218 203 212 209 208 200 200 204 201 199 188 203 199 189 185 187 188 187 193 198 210 208 215 207 209 206 205 207 207 207 205 208 209 207 201 195 197
66 147 226 209 204 184 166 142 110 72 53 134 124 115 130 169 121 218 121 352 323 138 291 30 318 267 259 272 269 279 310 262 247 253 259 258 252 254 251 258 257 250 279 280 274 256 259 251 239 213 200 186 193 216 198 201 205 203 198 197 202 181 189 193 192 190 193 196 198 195 206 197 189 204 207 217 215 212 208 208 212 213 212 209 202 196
65 182 225 216 183 99 103 110 70 113 110 46 135 160 103 254 237 293 278 341 327 72 267 2 346 282 269 265 268 256 248 237 226 223 240 242 259 254 250 250 260 280 275 268 247 255 254 261 257 212 209 208 211 209 202 210 200 199 200 206 196 190 190 197 192 185 197 196 196 194 195 180 187 216 211 214 215 204 209 214 215 217 216 214 213 201
117 281 237 185 140 112 59 82 97 71 61 104 99 97 198 244 109 276 286 352 3 67 306 327 317 286 278 272 262 259 249 264 242 234 245 232 242 245 242 240 251 258 262 273 277 271 240 235 246 225 216 216 210 210 204 200 200 199 203 201 196 194 194 193 194 194 194 179 155 121 126 148 149 179 169 146 85 206 214 225 218 230 223 217 215 207
188 223 57 118 133 138 130 119 119 122 125 8 116 125 122 164 209 146 203 327 349 42 62 355 304 295 332 338 330 311 325 300 279 279 272 264 244 251 275 285 238 249 257 272 284 280 267 255 243 219 222 206 208 213 208 199 199 198 200 200 195 190 192 193 187 185 160 129 115 98 69 77 76 46 108 173 229 208 224 227 210 221 210 224 225 214
277 268 146 94 88 83 112 114 174 125 54 343 230 165 191 171 136 264 9 85 20 344 348 46 352 309 298 297 249 278 335 312 257 329 267 250 253 255 257 253 260 254 245 243 255 261 277 251 262 251 231 215 221 220 216 203 206 198 201 191 189 187 186 189 185 176 164 171 168 162 161 170 185 203 181 206 213 193 208 209 171 185 203 211 219 226
192 356 135 152 123 91 99 143 213 130 156 108 245 169 150 140 120 121 78 73 1 135 342 25 142 273 305 274 280 293 327 297 306 282 270 273 268 243 246 258 260 246 254 243 251 267 279 268 263 267 234 222 223 231 191 197 201 198 190 189 189 189 189 183 176 171 168 174 181 187 192 195 197 205 218 196 171 185 202 181 193 202 198 204 209 219
99 32 64 68 93 98 114 112 216 141 119 197 244 118 107 102 125 153 107 115 198 258 300 38 101 222 304 287 243 331 317 298 302 287 279 290 293 265 257 261 260 254 249 258 264 269 259 267 242 251 249 224 230 208 180 194 191 193 194 185 190 188 181 179 170 174 181 182 186 192 203 205 207 208 211 186 191 177 174 191 206 203 211 204 210 215
137 156 117 102 74 100 172 210 178 128 120 220 189 127 124 135 146 115 92 106 95 46 280 331 279 265 254 265 312 348 312 294 277 270 286 291 290 289 284 263 260 263 253 241 255 265 272 268 255 250 260 243 221 198 196 198 196 192 180 181 174 180 172 175 174 179 190 191 188 193 195 209 218 209 207 159 162 170 175 195 209 211 217 218 214 213
350 159 215 146 131 183 236 303 168 120 90 241 131 88 90 79 67 85 98 77 352 36 270 238 192 205 276 281 332 338 251 270 265 280 277 284 293 295 299 303 288 281 274 258 243 261 272 263 259 248 251 242 219 215 195 178 158 167 159 169 172 186 176 176 180 184 191 194 185 194 201 208 211 194 176 161 187 191 178 207 210 215 220 224 227 226
249 319 171 88 176 191 137 37 154 340 105 132 103 79 34 38 24 24 58 81 55 319 253 250 295 163 289 273 228 157 212 208 277 302 292 306 325 320 293 278 305 325 331 327 313 279 270 277 269 286 242 240 269 241 159 162 159 157 160 163 177 191 175 175 185 185 194 195 191 200 199 205 206 200 192 192 210 193 197 217 219 214 222 221 235 244
15 359 83 268 86 115 108 81 17 57 91 121 94 120 66 356 13 33 347 35 150 269 264 250 227 131 197 289 283 239 272 228 207 263 284 317 316 315 321 336 332 327 324 320 334 326 327 340 356 3 282 297 348 38 53 117 110 141 151 151 178 188 185 187 189 190 199 195 204 208 203 208 210 196 197 205 210 201 209 211 218 213 208 222 228 230
46 89 274 325 204 126 109 86 2 15 2 81 87 63 111 246 38 283 15 253 218 208 244 331 200 324 240 228 265 287 270 262 215 220 223 287 305 307 321 339 324 314 322 322 317 319 320 312 299 297 309 353 2 350 321 223 159 147 154 169 183 209 194 193 189 195 198 198 205 204 208 213 204 203 204 208 214 203 210 206 215 197 213 203 211 214
267 281 353 305 25 227 132 122 137 112 347 101 131 132 100 119 92 248 276 244 305 288 269 301 228 260 257 274 237 243 250 175 222 228 238 259 264 283 296 310 317 312 299 287 290 284 273 273 273 252 6 22 348 265 238 207 175 177 181 186 194 214 190 192 192 198 200 210 209 207 210 210 199 209 204 210 211 207 206 199 208 206 207 209 212 207
121 301 256 143 222 173 187 158 175 164 172 207 98 145 175 145 157 208 195 213 220 206 279 281 62 232 107 242 269 234 261 286 274 257 252 262 265 261 273 277 283 291 292 285 290 284 282 288 288 293 108 118 232 241 233 214 198 180 196 191 202 215 204 192 201 195 208 214 211 212 215 213 205 210 207 213 207 199 199 201 207 212 210 212 214 210
203 199 266 258 279 155 175 254 106 91 40 26 152 80 89 226 141 148 210 148 229 341 348 228 215 193 170 275 288 249 286 290 287 286 314 293 295 319 308 280 273 289 283 287 291 292 285 276 291 293 300 266 245 238 238 226 204 191 210 202 210 212 206 199 199 209 209 213 211 212 213 218 214 216 215 216 204 206 198 204 205 215 211 215 211 211
44 238 320 312 48 141 128 129 104 128 180 228 103 205 207 131 99 92 70 19 93 43 256 144 300 291 298 312 270 297 309 291 327 310 322 299 298 333 290 289 294 285 291 282 260 269 276 287 272 265 270 263 260 264 242 227 208 209 210 210 219 221 207 201 209 213 208 212 209 219 218 218 217 215 214 214 212 209 206 205 211 214 216 210 206 209
149 230 319 101 210 344 227 83 96 32 143 96 179 232 180 151 116 129 213 355 68 196 266 86 240 299 29 285 322 350 272 280 293 283 298 293 292 286 265 269 291 285 280 290 299 281 274 277 281 281 265 259 256 251 257 253 240 232 228 219 220 215 213 215 208 212 208 208 212 218 219 220 218 217 222 219 219 212 209 215 215 216 218 213 207 203
121 99 306 341 14 296 348 117 31 349 42 143 197 192 114 233 220 311 88 256 145 273 273 299 270 251 196 244 335 353 201 235 247 268 316 296 302 310 318 321 168 286 310 313 306 300 296 290 291 299 299 294 272 265 265 277 253 242 240 230 219 226 223 218 211 212 219 211 216 215 216 215 218 220 222 223 222 213 216 218 213 214 218 213 205 209
88 153 283 340 129 306 7 111 199 186 350 50 87 85 102 98 163 129 197 175 125 242 49 289 32 263 181 213 196 224 215 219 231 247 259 253 273 298 296 300 312 322 315 304 305 306 299 294 293 296 298 302 299 285 280 267 255 242 239 237 238 243 230 217 208 205 217 215 215 223 217 221 215 217 219 220 216 218 221 219 214 216 217 214 207 209
164 129 211 288 292 85 191 208 210 153 147 123 115 195 166 25 227 108 39 133 176 175 182 259 305 268 261 206 178 200 208 215 185 197 223 258 276 272 273 286 290 280 279 291 293 299 306 310 315 318 306 285 291 289 267 242 230 230 229 236 230 229 234 228 218 207 220 206 223 221 223 218 212 220 217 224 220 225 226 221 216 217 216 209 216 202
109 177 180 131 77 234 245 261 164 178 183 174 170 192 176 132 138 154 255 31 94 124 231 145 259 263 259 178 197 185 214 202 215 178 216 241 273 282 266 257 229 269 273 262 289 273 269 272 282 288 300 290 262 257 250 242 231 235 228 231 228 229 237 228 222 214 214 211 215 218 222 222 220 218 218 225 226 229 228 220 215 213 210 217 218 200
145 136 106 180 202 206 220 322 298 286 64 184 169 221 176 176 120 141 192 247 29 250 114 179 55 276 199 189 199 204 213 229 209 191 205 264 262 264 278 307 302 239 266 284 282 275 259 246 244 245 257 263 243 239 238 250 250 253 250 241 233 231 244 219 227 213 210 213 217 223 219 219 222 213 221 225 230 233 229 223 219 205 213 219 216 211
96 91 117 291 316 315 315 311 12 63 125 334 316 108 144 197 181 175 165 181 172 170 162 268 253 263 16 344 285 286 270 248 254 169 202 268 260 279 3 344 313 320 306 286 277 275 272 280 284 304 309 302 304 321 328 326 308 288 275 259 250 246 255 243 235 222 215 222 228 224 217 223 221 214 221 225 229 232 229 223 221 208 219 220 212 214
156 261 139 128 23 340 343 343 344 325 117 197 176 212 194 147 85 120 101 91 198 212 185 152 232 260 302 322 307 26 57 150 235 257 209 89 40 354 319 312 301 306 318 329 330 322 322 345 352 328 318 316 310 316 321 308 287 272 265 253 245 255 264 258 237 227 234 230 237 230 227 230 216 220 224 228 228 232 227 224 223 217 222 217 221 219
179 178 141 159 190 196 203 195 213 205 193 227 224 195 193 169 159 121 218 172 216 244 176 198 241 243 353 323 16 52 61 174 247 237 281 268 281 41 329 302 304 329 314 305 306 332 340 332 322 321 319 317 308 299 296 283 264 247 239 239 235 260 267 255 224 229 235 234 236 239 235 237 225 224 226 228 232 231 224 221 219 221 225 215 222 219
177 176 190 190 197 215 219 220 72 117 118 192 224 189 199 198 185 184 112 162 213 218 164 240 233 257 243 242 205 213 186 188 187 13 255 273 275 268 250 259 259 257 270 291 308 309 326 320 302 294 303 297 285 273 267 275 296 311 331 314 286 253 261 262 223 228 232 234 235 245 243 237 232 231 232 227 226 223 223 225 224 220 225 213 219 220
74 215 228 213 223 226 223 198 205 161 180 205 201 202 197 182 181 182 185 220 212 196 250 227 230 239 255 211 218 225 232 251 257 254 266 264 261 229 247 268 291 299 294 294 296 293 274 262 262 273 274 281 291 303 305 303 307 318 323 305 301 292 266 258 224 237 237 236 242 243 247 240 234 232 235 236 231 224 221 221 221 225 230 217 224 224
148 196 253 167 248 239 145 213 177 186 190 199 205 196 194 194 180 191 214 225 193 191 228 240 187 218 249 237 200 220 215 218 244 255 235 261 291 299 295 301 306 309 309 312 310 324 327 323 327 321 320 320 334 339 340 340 341 336 302 279 281 287 271 245 223 239 237 236 240 244 246 253 240 230 230 224 226 227 228 226 223 217 216 223 233 230
112 240 205 139 227 240 222 197 192 186 211 215 210 207 200 188 195 202 215 220 215 217 233 246 233 225 242 250 175 221 228 206 242 274 348 292 257 256 280 287 296 299 303 300 297 293 298 312 308 308 315 325 336 334 334 333 328 325 319 308 302 288 279 216 235 241 245 241 245 252 257 256 250 235 222 222 227 229 227 222 218 216 220 223 226 233
157 267 101 98 189 256 238 212 172 201 189 211 227 220 212 207 207 207 213 224 224 243 250 258 263 266 250 170 200 231 186 152 106 211 229 243 256 261 268 275 272 268 269 279 273 291 319 312 313 316 326 325 330 322 318 311 308 313 312 306 308 305 288 219 248 243 244 251 253 262 269 263 256 233 231 229 231 230 226 222 215 217 223 226 221 224
106 243 73 83 199 271 237 162 182 91 152 231 246 234 220 211 218 219 224 223 206 219 232 241 254 254 250 139 221 143 157 195 223 232 244 250 243 242 244 251 257 260 260 269 302 322 316 321 322 328 324 323 320 319 318 318 317 320 310 312 311 308 307 244 246 252 255 255 268 272 270 263 257 242 243 233 236 229 226 220 217 222 224 227 226 226
135 136 127 164 210 240 261 165 138 107 54 273 244 232 220 212 218 219 228 226 218 210 220 222 233 242 226 190 244 163 171 206 218 224 241 253 263 232 233 240 241 255 277 303 303 313 309 305 308 307 311 311 312 318 317 316 319 312 309 314 307 318 315 288 258 261 264 266 265 266 260 256 250 250 248 241 236 226 217 216 221 224 223 226 224 215
103 130 168 205 195 230 119 122 122 150 217 229 236 227 186 203 193 202 221 221 215 180 217 223 245 269 30 191 211 230 160 214 227 227 214 213 225 240 248 247 251 257 282 287 273 275 289 300 305 302 291 285 288 293 294 299 283 287 300 301 304 312 308 303 293 275 284 292 276 266 262 258 252 251 248 243 234 224 223 220 227 227 225 229 220 218
169 161 197 219 163 219 126 135 163 217 229 241 328 298 200 197 191 209 224 199 181 221 247 265 264 258 251 243 231 231 227 234 242 195 212 234 205 185 172 179 219 257 283 284 300 296 288 288 296 305 319 330 331 324 332 323 317 307 306 315 317 315 317 316 307 304 293 291 288 289 280 271 258 256 255 245 234 226 229 228 236 231 226 222 221 219
175 175 141 222 163 65 167 179 222 220 212 299 268 246 4 115 199 181 251 240 209 202 206 229 240 248 251 247 243 235 220 194 119 6 268 7 170 135 131 155 189 224 300 282 275 282 284 289 291 298 306 313 327 323 328 316 326 331 320 318 322 325 328 323 315 302 307 302 302 301 292 279 276 270 265 253 239 233 237 233 230 232 223 224 230 230
162 127 147 230 179 222 158 210 236 5 330 297 266 214 151 164 149 166 223 239 211 206 209 224 240 248 251 252 249 228 108 131 178 265 222 191 204 193 151 184 213 257 259 279 266 278 277 271 277 288 294 311 315 317 319 322 328 325 324 334 337 339 334 338 323 309 305 297 295 295 292 286 279 279 275 264 256 250 247 242 238 237 213 226 227 226
162 182 183 208 219 194 226 249 259 223 238 240 220 126 201 178 174 181 190 263 229 211 208 213 233 243 249 257 261 213 131 207 278 260 220 204 213 215 289 255 275 254 254 266 287 275 282 285 287 293 288 301 306 288 297 318 321 322 330 331 336 343 338 340 325 316 309 299 295 289 286 279 271 274 275 270 259 260 260 252 252 240 208 221 227 229
216 202 179 199 207 188 208 228 227 223 237 226 232 182 198 185 152 135 148 246 236 204 191 199 227 237 234 233 241 110 150 227 248 248 213 202 266 192 101 301 255 262 272 291 309 324 328 329 321 300 306 303 330 333 342 335 334 341 340 338 338 340 334 333 323 323 318 310 303 294 285 277 268 260 264 264 260 257 261 254 246 243 216 231 231 238
193 199 186 213 212 207 213 221 227 208 246 255 228 245 201 153 121 98 208 242 239 162 185 194 216 223 229 231 147 138 174 224 242 240 204 198 194 211 164 13 358 350 333 329 326 316 309 316 343 349 352 349 330 323 337 344 346 342 337 331 332 334 331 323 318 306 300 297 299 297 292 280 272 264 258 263 266 261 255 259 261 245 230 237 231 243
197 210 201 209 211 217 219 239 272 279 276 236 216 179 145 160 137 177 216 230 238 185 200 191 210 220 204 165 154 195 226 194 172 156 157 193 77 26 321 193 240 260 304 334 333 337 345 340 342 314 305 307 306 318 329 350 350 340 335 328 334 327 317 312 310 308 303 301 299 298 292 286 270 274 267 253 264 269 269 253 249 249 237 241 240 242
204 197 210 211 219 216 213 228 234 266 228 181 261 154 162 120 215 211 227 261 162 187 194 179 192 193 160 179 174 159 159 175 190 166 96 85 133 241 288 338 357 356 310 282 305 351 350 339 332 325 311 296 307 310 320 351 343 324 327 329 321 308 304 311 312 311 312 309 306 301 295 288 283 266 271 273 265 274 267 259 248 247 239 238 233 237
182 191 188 198 203 223 214 226 215 228 289 154 125 57 264 180 226 190 154 340 52 172 146 163 151 171 144 111 115 122 127 114 88 87 35 349 48 12 357 357 357 345 340 345 345 351 2 337 328 323 314 318 326 336 332 356 341 331 327 322 306 310 313 311 310 308 306 304 302 300 296 290 282 282 278 277 263 258 268 261 247 252 242 236 234 235
170 210 186 218 182 218 207 218 212 211 153 194 154 198 197 199 189 155 130 113 57 125 145 121 89 176 158 124 137 119 111 103 60 39 25 358 348 348 357 350 345 335 330 314 286 302 333 316 304 313 320 321 328 340 339 355 337 329 328 313 312 315 310 307 305 304 303 299 296 296 295 290 286 277 271 269 269 261 263 266 243 243 232 236 236 240
213 205 180 206 181 202 212 221 227 225 182 215 214 177 214 218 156 177 146 157 157 210 184 119 149 165 154 129 123 131 108 148 145 174 123 217 298 325 320 298 305 308 311 316 320 324 332 324 319 318 316 322 328 342 349 341 332 316 313 308 325 322 322 320 319 314 306 301 297 295 292 292 284 279 270 261 243 258 258 261 237 247 238 219 237 239
302 218 64 86 269 296 307 201 247 329 291 276 346 181 161 215 246 141 140 123 132 147 171 153 166 162 148 116 103 75 106 142 116 130 170 240 191 252 249 300 319 306 304 312 324 334 321 313 303 307 315 321 331 327 338 340 344 325 311 314 316 312 309 309 311 309 303 301 297 294 295 297 293 276 264 265 242 241 245 243 238 237 243 220 232 232
243 185 196 198 275 174 250 199 197 220 83 100 134 89 74 103 206 192 151 146 157 156 148 109 136 136 144 135 119 138 119 144 113 151 181 200 327 314 328 326 333 340 346 345 332 331 325 324 326 330 331 323 330 333 329 334 336 313 307 316 313 313 314 314 312 307 305 305 306 303 299 295 294 300 290 265 259 249 249 241 236 236 242 231 232 234
274 178 176 210 224 191 235 265 296 326 268 337 144 140 138 76 45 39 49 78 102 92 94 107 110 90 99 86 115 116 124 141 123 130 196 255 253 238 86 16 343 332 318 306 309 321 324 329 327 322 322 317 320 325 321 324 329 331 327 324 325 321 319 316 314 311 307 306 306 301 304 300 294 292 291 282 256 258 257 238 228 234 237 229 222 226
207 113 222 183 209 222 329 324 274 30 23 344 19 29 355 120 99 67 67 80 83 85 78 59 54 77 79 84 70 115 106 98 98 113 111 288 337 22 13 4 349 336 326 334 329 334 328 323 323 318 318 314 320 323 321 321 325 326 326 323 324 323 323 319 316 312 306 305 306 301 301 291 287 285 285 286 277 251 241 244 233 233 248 240 220 217
95 203 210 155 224 207 209 211 149 149 230 230 216 219 101 105 110 104 89 72 69 82 80 89 67 58 67 53 54 67 94 52 25 15 0 346 344 351 358 352 341 336 331 320 316 323 324 326 322 317 315 313 320 321 318 319 323 324 323 323 322 324 322 319 317 314 310 310 308 303 307 304 295 284 276 273 276 281 276 238 229 237 239 258 226 226
198 198 159 184 194 226 219 222 185 168 75 329 156 181 152 146 127 107 100 105 80 65 64 109 109 75 60 54 49 72 61 40 2 1 344 335 352 10 6 348 344 337 333 336 339 332 331 324 324 318 313 314 319 312 310 311 317 318 319 325 324 325 322 320 315 308 304 307 305 303 303 300 298 296 285 275 274 273 278 292 259 229 238 244 247 236